User: anonymous   Login
Location: Unspecified
(0.0000°N, 0.0000°E)
Time: 23:56:28
(UTC+00:00)
Language:

ONEWEB-0227 - Orbit

View from above orbital plane
View from above orbital plane
View from above satellite
View from above satellite

Ground track
Ground track

The orbit is defined by the following mean orbital elements,

1 48792U          26145.31585481 +.00000000 +00000-0 +42192-3 0 00007
2 48792  87.8996 263.7446 0001789 100.1468 259.9864 13.15547185    09
Epoch (UTC): 25 May 2026 07:34:49
Eccentricity: 0.0001789
inclination: 87.8996°
perigee height: 1200 km
apogee height: 1203 km
right ascension of ascending node: 263.7446°
argument of perigee: 100.1468°
revolutions per day: 13.15547185
mean anomaly at epoch: 259.9864°

The dashed part of the orbit path shows where the satellite is in the earth's shadow,  

DLR